VIV4319 MMCU-MMMY

Flight info

Callsign VIV4319
Flight time 1h 23m
Altitude 33000
Route CUU6B CUU UJ2 NOTAL UJ45 URTUS DCT TASNA DCT MY604 DCT MTY
Aircraft A320/M-SDE3FGHIRWY/LB1

Departure

Time 2026-04-22 03:24
Airport General Roberto Fierro Villalobos International Airport (MMCU)

Arrival

Time 2026-04-22 04:47
Airport Monterrey International Airport (MMMY)
Time Latitude Longitude Altitude Speed Heading
2026-04-22 02:59 28.70484 -105.96814 4446 ft 0 kts 281°
2026-04-22 03:11 28.70484 -105.96812 4446 ft 1 kts 281°
2026-04-22 03:11 28.70481 -105.96793 4446 ft 3 kts 266°
2026-04-22 03:12 28.70485 -105.96772 4446 ft 3 kts 236°
2026-04-22 03:12 28.70502 -105.96757 4446 ft 0 kts 191°
2026-04-22 03:16 28.70501 -105.96757 4446 ft 0 kts 191°
2026-04-22 03:16 28.70496 -105.96758 4446 ft 2 kts 191°
2026-04-22 03:16 28.70481 -105.96761 4446 ft 3 kts 191°
2026-04-22 03:16 28.70474 -105.96763 4446 ft 3 kts 191°
2026-04-22 03:17 28.70440 -105.96748 4446 ft 7 kts 142°
2026-04-22 03:17 28.70404 -105.96719 4447 ft 7 kts 172°
2026-04-22 03:17 28.70356 -105.96726 4447 ft 7 kts 190°
2026-04-22 03:17 28.70310 -105.96713 4447 ft 7 kts 128°
2026-04-22 03:18 28.70297 -105.96658 4447 ft 7 kts 101°
2026-04-22 03:18 28.70284 -105.96598 4447 ft 8 kts 110°
2026-04-22 03:18 28.70237 -105.96561 4447 ft 9 kts 159°
2026-04-22 03:18 28.70180 -105.96537 4448 ft 9 kts 160°
2026-04-22 03:19 28.70123 -105.96514 4449 ft 8 kts 161°
2026-04-22 03:19 28.70065 -105.96491 4448 ft 11 kts 161°
2026-04-22 03:19 28.69977 -105.96456 4448 ft 15 kts 161°
2026-04-22 03:19 28.69868 -105.96450 4448 ft 16 kts 190°
2026-04-22 03:20 28.69756 -105.96477 4449 ft 16 kts 191°
2026-04-22 03:20 28.69643 -105.96498 4450 ft 17 kts 190°
2026-04-22 03:20 28.69520 -105.96523 4448 ft 19 kts 191°
2026-04-22 03:20 28.69385 -105.96552 4447 ft 20 kts 191°
2026-04-22 03:21 28.69252 -105.96602 4447 ft 20 kts 225°
2026-04-22 03:21 28.69189 -105.96626 4446 ft 2 kts 114°
2026-04-22 03:21 28.69191 -105.96605 4446 ft 3 kts 69°
2026-04-22 03:21 28.69204 -105.96595 4446 ft 3 kts 37°
2026-04-22 03:22 28.69245 -105.96582 4447 ft 9 kts 12°
2026-04-22 03:22 28.69250 -105.96581 4447 ft 0 kts 11°
2026-04-22 03:22 28.69251 -105.96581 4447 ft 1 kts 11°
2026-04-22 03:23 28.69406 -105.96547 4447 ft 58 kts 11°
2026-04-22 03:23 28.70032 -105.96412 4448 ft 121 kts 11°
2026-04-22 03:23 28.71012 -105.96196 4537 ft 160 kts 11°
2026-04-22 03:23 28.71754 -105.96036 4929 ft 165 kts 10°
2026-04-22 03:24 28.73225 -105.95804 5815 ft 165 kts
2026-04-22 03:24 28.74408 -105.95644 6364 ft 177 kts
2026-04-22 03:24 28.75274 -105.95529 6627 ft 193 kts
2026-04-22 03:24 28.76688 -105.95339 7051 ft 212 kts
2026-04-22 03:25 28.78116 -105.95137 7537 ft 213 kts
2026-04-22 03:25 28.79636 -105.94917 7922 ft 231 kts
2026-04-22 03:25 28.81149 -105.94696 8040 ft 249 kts
2026-04-22 03:25 28.82592 -105.94197 8133 ft 271 kts 27°
2026-04-22 03:26 28.84033 -105.92579 8374 ft 292 kts 61°
2026-04-22 03:26 28.84490 -105.90325 8866 ft 300 kts 94°
2026-04-22 03:26 28.83839 -105.88070 9395 ft 303 kts 124°
2026-04-22 03:26 28.82541 -105.86175 9981 ft 306 kts 131°
2026-04-22 03:27 28.81084 -105.84324 10220 ft 322 kts 134°
2026-04-22 03:27 28.79508 -105.82422 10328 ft 340 kts 135°
2026-04-22 03:27 28.77839 -105.80421 10635 ft 350 kts 134°
2026-04-22 03:27 28.76162 -105.78383 11092 ft 354 kts 134°
2026-04-22 03:28 28.74487 -105.76316 11559 ft 357 kts 134°
2026-04-22 03:28 28.72799 -105.74228 12045 ft 360 kts 134°
2026-04-22 03:28 28.71105 -105.72115 12532 ft 362 kts 133°
2026-04-22 03:28 28.69424 -105.69974 13043 ft 364 kts 133°
2026-04-22 03:29 28.67738 -105.67812 13538 ft 366 kts 133°
2026-04-22 03:29 28.66041 -105.65643 13994 ft 368 kts 133°
2026-04-22 03:29 28.64347 -105.63488 14415 ft 371 kts 133°
2026-04-22 03:29 28.62644 -105.61335 14842 ft 373 kts 133°
2026-04-22 03:30 28.60895 -105.59136 15279 ft 375 kts 133°
2026-04-22 03:30 28.59143 -105.56940 15716 ft 377 kts 134°
2026-04-22 03:30 28.57363 -105.54704 16174 ft 380 kts 134°
2026-04-22 03:30 28.55713 -105.52364 16607 ft 383 kts 124°
2026-04-22 03:31 28.54438 -105.49674 17057 ft 387 kts 114°
2026-04-22 03:31 28.53396 -105.46856 17495 ft 390 kts 114°
2026-04-22 03:31 28.52333 -105.44001 17930 ft 392 kts 114°
2026-04-22 03:31 28.51257 -105.41136 18345 ft 395 kts 114°
2026-04-22 03:32 28.50173 -105.38262 18707 ft 397 kts 114°
2026-04-22 03:32 28.49077 -105.35358 19076 ft 400 kts 114°
2026-04-22 03:32 28.47978 -105.32442 19432 ft 403 kts 114°
2026-04-22 03:32 28.46870 -105.29494 19796 ft 407 kts 114°
2026-04-22 03:33 28.45756 -105.26529 20148 ft 410 kts 114°
2026-04-22 03:33 28.44643 -105.23576 20487 ft 413 kts 114°
2026-04-22 03:33 28.43490 -105.20527 20828 ft 416 kts 114°
2026-04-22 03:33 28.42359 -105.17537 21155 ft 420 kts 114°
2026-04-22 03:34 28.41201 -105.14475 21474 ft 423 kts 114°
2026-04-22 03:34 28.40035 -105.11397 21802 ft 426 kts 114°
2026-04-22 03:34 28.38860 -105.08294 22134 ft 429 kts 114°
2026-04-22 03:34 28.37679 -105.05173 22478 ft 432 kts 114°
2026-04-22 03:35 28.36487 -105.02022 22912 ft 436 kts 114°
2026-04-22 03:35 28.35310 -104.98912 23341 ft 440 kts 114°
2026-04-22 03:35 28.34091 -104.95700 23729 ft 444 kts 114°
2026-04-22 03:35 28.32863 -104.92468 24092 ft 447 kts 114°
2026-04-22 03:36 28.31622 -104.89217 24445 ft 451 kts 114°
2026-04-22 03:36 28.30369 -104.85936 24814 ft 454 kts 114°
2026-04-22 03:36 28.29125 -104.82674 25170 ft 458 kts 114°
2026-04-22 03:36 28.27844 -104.79308 25527 ft 461 kts 114°
2026-04-22 03:37 28.26582 -104.75998 25866 ft 465 kts 114°
2026-04-22 03:37 28.25296 -104.72626 26202 ft 468 kts 114°
2026-04-22 03:37 28.23982 -104.69183 26551 ft 471 kts 114°
2026-04-22 03:37 28.22676 -104.65764 26894 ft 474 kts 114°
2026-04-22 03:38 28.21375 -104.62364 27225 ft 477 kts 114°
2026-04-22 03:38 28.20045 -104.58897 27557 ft 480 kts 114°
2026-04-22 03:38 28.18710 -104.55420 27902 ft 483 kts 114°
2026-04-22 03:38 28.17362 -104.51911 28247 ft 487 kts 114°
2026-04-22 03:39 28.16008 -104.48390 28575 ft 490 kts 114°
2026-04-22 03:39 28.14635 -104.44829 28914 ft 493 kts 114°
2026-04-22 03:39 28.13252 -104.41246 29253 ft 497 kts 114°
2026-04-22 03:39 28.11872 -104.37666 29574 ft 500 kts 114°
2026-04-22 03:40 28.10475 -104.34039 29884 ft 503 kts 114°
2026-04-22 03:40 28.09069 -104.30396 30177 ft 506 kts 114°
2026-04-22 03:40 28.07653 -104.26737 30455 ft 509 kts 114°
2026-04-22 03:40 28.06224 -104.23049 30771 ft 510 kts 114°
2026-04-22 03:41 28.04801 -104.19375 31188 ft 510 kts 114°
2026-04-22 03:41 28.03392 -104.15741 31567 ft 509 kts 115°
2026-04-22 03:41 28.01968 -104.12073 31960 ft 509 kts 115°
2026-04-22 03:41 28.00540 -104.08397 32353 ft 509 kts 115°
2026-04-22 03:42 27.99116 -104.04733 32761 ft 509 kts 115°
2026-04-22 03:42 27.97685 -104.01053 33171 ft 508 kts 115°
2026-04-22 03:42 27.96263 -103.97399 33588 ft 508 kts 115°
2026-04-22 03:42 27.94837 -103.93738 34006 ft 507 kts 116°
2026-04-22 03:43 27.93416 -103.90100 34375 ft 506 kts 116°
2026-04-22 03:43 27.91991 -103.86457 34741 ft 505 kts 116°
2026-04-22 03:43 27.90566 -103.82819 35099 ft 504 kts 116°
2026-04-22 03:43 27.89148 -103.79199 35457 ft 503 kts 116°
2026-04-22 03:44 27.87729 -103.75580 35810 ft 502 kts 116°
2026-04-22 03:44 27.86316 -103.71982 35969 ft 502 kts 116°
2026-04-22 03:44 27.83476 -103.64746 36000 ft 503 kts 116°
2026-04-22 03:45 27.82074 -103.61168 36184 ft 503 kts 116°
2026-04-22 03:45 27.80654 -103.57544 36425 ft 504 kts 116°
2026-04-22 03:45 27.79227 -103.53925 36678 ft 504 kts 116°
2026-04-22 03:45 27.77798 -103.50312 36911 ft 503 kts 116°
2026-04-22 03:46 27.74942 -103.43096 37004 ft 502 kts 116°
2026-04-22 03:46 27.72097 -103.35894 36998 ft 502 kts 116°
2026-04-22 03:47 27.69241 -103.28684 37004 ft 502 kts 116°
2026-04-22 03:47 27.66402 -103.21537 36999 ft 502 kts 116°
2026-04-22 03:48 27.63540 -103.14329 37002 ft 503 kts 116°
2026-04-22 03:48 27.60669 -103.07143 37005 ft 503 kts 116°
2026-04-22 03:49 27.57778 -102.99921 37015 ft 504 kts 116°
2026-04-22 03:49 27.54893 -102.92723 37025 ft 504 kts 116°
2026-04-22 03:50 27.52004 -102.85499 37046 ft 505 kts 116°
2026-04-22 03:50 27.49139 -102.78325 37060 ft 505 kts 116°
2026-04-22 03:51 27.46232 -102.71073 37068 ft 505 kts 116°
2026-04-22 03:51 27.43320 -102.63859 37096 ft 505 kts 117°
2026-04-22 03:52 27.40415 -102.56680 37096 ft 504 kts 117°
2026-04-22 03:52 27.37527 -102.49540 37109 ft 504 kts 117°
2026-04-22 03:53 27.34618 -102.42349 37111 ft 504 kts 117°
2026-04-22 03:53 27.31706 -102.35168 37108 ft 504 kts 117°
2026-04-22 03:54 27.28896 -102.28259 37109 ft 504 kts 117°
2026-04-22 03:54 27.25963 -102.21057 37124 ft 505 kts 117°
2026-04-22 03:55 27.23039 -102.13889 36648 ft 504 kts 117°
2026-04-22 03:55 27.21602 -102.10371 36075 ft 504 kts 117°
2026-04-22 03:55 27.20137 -102.06788 35496 ft 505 kts 117°
2026-04-22 03:56 27.18677 -102.03224 34965 ft 504 kts 117°
2026-04-22 03:56 27.17207 -101.99637 34557 ft 501 kts 117°
2026-04-22 03:56 27.15754 -101.96094 34123 ft 497 kts 117°
2026-04-22 03:56 27.14414 -101.92824 33668 ft 494 kts 117°
2026-04-22 03:57 27.12982 -101.89335 33199 ft 491 kts 117°
2026-04-22 03:57 27.11559 -101.85866 32756 ft 487 kts 117°
2026-04-22 03:57 27.10149 -101.82428 32234 ft 483 kts 117°
2026-04-22 03:57 27.08745 -101.79011 31805 ft 480 kts 117°
2026-04-22 03:58 27.07358 -101.75640 31557 ft 478 kts 117°
2026-04-22 03:58 27.05951 -101.72230 31304 ft 477 kts 117°
2026-04-22 03:58 27.04573 -101.68900 31067 ft 476 kts 117°
2026-04-22 03:58 27.03182 -101.65541 30828 ft 474 kts 117°
2026-04-22 03:59 27.01779 -101.62149 30586 ft 472 kts 117°
2026-04-22 03:59 27.00415 -101.58851 30355 ft 470 kts 117°
2026-04-22 03:59 26.99041 -101.55529 30115 ft 469 kts 117°
2026-04-22 03:59 26.97675 -101.52233 29832 ft 467 kts 117°
2026-04-22 04:00 26.96308 -101.48935 29548 ft 464 kts 117°
2026-04-22 04:00 26.94978 -101.45632 29298 ft 462 kts 115°
2026-04-22 04:00 26.93778 -101.42284 29019 ft 461 kts 112°
2026-04-22 04:00 26.92686 -101.38910 28747 ft 459 kts 111°
2026-04-22 04:01 26.91654 -101.35536 28491 ft 457 kts 110°
2026-04-22 04:01 26.90655 -101.32236 28321 ft 452 kts 111°
2026-04-22 04:01 26.89610 -101.28848 28053 ft 452 kts 111°
2026-04-22 04:01 26.88560 -101.25532 27800 ft 450 kts 112°
2026-04-22 04:02 26.87523 -101.22339 27551 ft 447 kts 112°
2026-04-22 04:02 26.86436 -101.19039 27292 ft 445 kts 112°
2026-04-22 04:02 26.85374 -101.15842 27047 ft 443 kts 112°
2026-04-22 04:02 26.84300 -101.12608 26801 ft 441 kts 112°
2026-04-22 04:03 26.83237 -101.09394 26551 ft 439 kts 112°
2026-04-22 04:03 26.82185 -101.06194 26310 ft 437 kts 112°
2026-04-22 04:03 26.81137 -101.02997 26077 ft 435 kts 112°
2026-04-22 04:03 26.80098 -100.99827 25845 ft 433 kts 112°
2026-04-22 04:04 26.79063 -100.96676 25597 ft 431 kts 112°
2026-04-22 04:04 26.78035 -100.93550 25360 ft 429 kts 112°
2026-04-22 04:04 26.77338 -100.91440 25202 ft 428 kts 112°
2026-04-22 04:04 26.76307 -100.88324 24964 ft 426 kts 112°
2026-04-22 04:05 26.75277 -100.85209 24741 ft 424 kts 112°
2026-04-22 04:05 26.74257 -100.82121 24509 ft 422 kts 112°
2026-04-22 04:05 26.73237 -100.79034 24283 ft 421 kts 112°
2026-04-22 04:05 26.72224 -100.75972 24055 ft 419 kts 112°
2026-04-22 04:06 26.71216 -100.72924 23829 ft 417 kts 112°
2026-04-22 04:06 26.70212 -100.69891 23596 ft 415 kts 112°
2026-04-22 04:06 26.69222 -100.66900 23330 ft 413 kts 112°
2026-04-22 04:06 26.68225 -100.63891 23065 ft 412 kts 112°
2026-04-22 04:07 26.67232 -100.60903 22799 ft 410 kts 112°
2026-04-22 04:07 26.66235 -100.57902 22534 ft 408 kts 112°
2026-04-22 04:07 26.65247 -100.54925 22278 ft 406 kts 112°
2026-04-22 04:07 26.64267 -100.51976 22014 ft 402 kts 112°
2026-04-22 04:08 26.63309 -100.49101 21574 ft 399 kts 112°
2026-04-22 04:08 26.62343 -100.46207 21138 ft 397 kts 112°
2026-04-22 04:08 26.61378 -100.43319 20686 ft 396 kts 112°
2026-04-22 04:08 26.60416 -100.40433 20247 ft 395 kts 112°
2026-04-22 04:09 26.59455 -100.37556 19780 ft 394 kts 112°
2026-04-22 04:09 26.58501 -100.34705 19345 ft 393 kts 112°
2026-04-22 04:09 26.57545 -100.31851 18895 ft 391 kts 112°
2026-04-22 04:09 26.56589 -100.29000 18447 ft 390 kts 112°
2026-04-22 04:10 26.55475 -100.26291 17959 ft 386 kts 124°
2026-04-22 04:10 26.53804 -100.23985 17441 ft 379 kts 141°
2026-04-22 04:10 26.51707 -100.22278 17007 ft 369 kts 156°
2026-04-22 04:10 26.49363 -100.21227 16576 ft 359 kts 171°
2026-04-22 04:11 26.46927 -100.20775 16161 ft 352 kts 178°
2026-04-22 04:11 26.44514 -100.20420 15739 ft 349 kts 178°
2026-04-22 04:11 26.42112 -100.20059 15327 ft 348 kts 177°
2026-04-22 04:11 26.39706 -100.19696 14913 ft 348 kts 177°
2026-04-22 04:12 26.37328 -100.19336 14499 ft 341 kts 177°
2026-04-22 04:12 26.35234 -100.19019 14138 ft 338 kts 178°
2026-04-22 04:13 26.35223 -100.19018 14135 ft 338 kts 178°
2026-04-22 04:13 26.32930 -100.18681 13757 ft 330 kts 177°
2026-04-22 04:14 26.30671 -100.18340 13310 ft 325 kts 176°
2026-04-22 04:14 26.28449 -100.18003 12920 ft 318 kts 177°
2026-04-22 04:14 26.26278 -100.17674 12544 ft 312 kts 176°
2026-04-22 04:14 26.24147 -100.17353 12173 ft 306 kts 176°
2026-04-22 04:15 26.22079 -100.17042 11798 ft 300 kts 175°
2026-04-22 04:15 26.20014 -100.16729 11431 ft 291 kts 175°
2026-04-22 04:15 26.18068 -100.16441 11088 ft 283 kts 175°
2026-04-22 04:15 26.16117 -100.16157 10747 ft 275 kts 175°
2026-04-22 04:16 26.14640 -100.15941 10494 ft 269 kts 175°
2026-04-22 04:16 26.14386 -100.15904 10456 ft 268 kts 175°
2026-04-22 04:16 26.12567 -100.15690 10156 ft 259 kts 182°
2026-04-22 04:17 26.10795 -100.15883 9842 ft 255 kts 195°
2026-04-22 04:17 26.10210 -100.16049 9726 ft 255 kts 199°
2026-04-22 04:17 26.10066 -100.16099 9703 ft 255 kts 200°
2026-04-22 04:18 26.08701 -100.16694 9493 ft 251 kts 210°
2026-04-22 04:18 26.07275 -100.17770 9180 ft 243 kts 219°
2026-04-22 04:18 26.05989 -100.18860 9020 ft 223 kts 218°
2026-04-22 04:19 26.04750 -100.19890 8452 ft 221 kts 216°
2026-04-22 04:19 26.03516 -100.20907 7905 ft 219 kts 215°
2026-04-22 04:19 26.02301 -100.21907 7453 ft 214 kts 214°
2026-04-22 04:19 26.01123 -100.22875 7039 ft 208 kts 214°
2026-04-22 04:20 25.99973 -100.23821 6654 ft 202 kts 213°
2026-04-22 04:20 25.98947 -100.24666 6287 ft 198 kts 212°
2026-04-22 04:20 25.97864 -100.25555 5974 ft 190 kts 212°
2026-04-22 04:20 25.96860 -100.26381 5919 ft 171 kts 212°
2026-04-22 04:21 25.95916 -100.27157 5877 ft 167 kts 211°
2026-04-22 04:21 25.94978 -100.27922 5839 ft 167 kts 212°
2026-04-22 04:21 25.94064 -100.28670 5808 ft 155 kts 211°
2026-04-22 04:21 25.93212 -100.29371 5722 ft 150 kts 212°
2026-04-22 04:22 25.92372 -100.30060 5650 ft 150 kts 212°
2026-04-22 04:22 25.91535 -100.30745 5584 ft 150 kts 211°
2026-04-22 04:22 25.90613 -100.31229 5513 ft 144 kts 186°
2026-04-22 04:22 25.89650 -100.31155 5449 ft 141 kts 159°
2026-04-22 04:23 25.88824 -100.30582 5256 ft 141 kts 133°
2026-04-22 04:23 25.88310 -100.29736 5075 ft 142 kts 122°
2026-04-22 04:23 25.87803 -100.28808 4887 ft 140 kts 122°
2026-04-22 04:23 25.87544 -100.28337 4804 ft 140 kts 122°
2026-04-22 04:24 25.87227 -100.27740 4651 ft 142 kts 121°
2026-04-22 04:24 25.86702 -100.26817 4479 ft 140 kts 122°
2026-04-22 04:24 25.86195 -100.25893 4295 ft 140 kts 122°
2026-04-22 04:24 25.85690 -100.24974 4111 ft 139 kts 122°
2026-04-22 04:25 25.85194 -100.24073 3818 ft 137 kts 122°
2026-04-22 04:25 25.84702 -100.23175 3696 ft 138 kts 122°
2026-04-22 04:25 25.84210 -100.22279 3543 ft 138 kts 122°
2026-04-22 04:25 25.83884 -100.21685 3436 ft 138 kts 122°
2026-04-22 04:26 25.83803 -100.21536 3402 ft 138 kts 122°
2026-04-22 04:26 25.83336 -100.20682 3232 ft 138 kts 122°
2026-04-22 04:26 25.82837 -100.19770 3106 ft 139 kts 121°
2026-04-22 04:26 25.82347 -100.18848 2873 ft 139 kts 120°
2026-04-22 04:27 25.81865 -100.17920 2630 ft 139 kts 121°
2026-04-22 04:27 25.81363 -100.17002 2492 ft 139 kts 122°
2026-04-22 04:27 25.80854 -100.16083 2338 ft 140 kts 122°
2026-04-22 04:27 25.80408 -100.15281 2102 ft 138 kts 121°
2026-04-22 04:28 25.80129 -100.14779 1983 ft 139 kts 121°
2026-04-22 04:28 25.79799 -100.14194 1838 ft 140 kts 123°
2026-04-22 04:28 25.79614 -100.13885 1820 ft 138 kts 124°
2026-04-22 04:28 25.79143 -100.12964 1537 ft 138 kts 121°
2026-04-22 04:29 25.78622 -100.12081 1376 ft 139 kts 123°
2026-04-22 04:29 25.78456 -100.11783 1328 ft 136 kts 121°
2026-04-22 04:29 25.78177 -100.11292 1283 ft 129 kts 125°
2026-04-22 04:29 25.77811 -100.10634 1292 ft 119 kts 118°
2026-04-22 04:30 25.77564 -100.10064 1682 ft 120 kts 116°
2026-04-22 04:30 25.77289 -100.09219 2446 ft 109 kts 114°
2026-04-22 04:30 25.77013 -100.08437 3052 ft 102 kts 112°
2026-04-22 04:30 25.76693 -100.07730 2557 ft 127 kts 121°
2026-04-22 04:31 25.76130 -100.06757 2620 ft 151 kts 123°
2026-04-22 04:31 25.75496 -100.05752 2704 ft 165 kts 125°
2026-04-22 04:31 25.74811 -100.04682 2794 ft 180 kts 125°
2026-04-22 04:31 25.74046 -100.03481 3012 ft 198 kts 124°
2026-04-22 04:32 25.73274 -100.02194 3475 ft 201 kts 124°
2026-04-22 04:32 25.72499 -100.00854 3951 ft 208 kts 123°
2026-04-22 04:32 25.71728 -99.99492 4715 ft 209 kts 124°
2026-04-22 04:32 25.71138 -99.98016 5445 ft 215 kts 101°
2026-04-22 04:33 25.71357 -99.96343 6238 ft 229 kts 69°
2026-04-22 04:33 25.72402 -99.94951 6832 ft 245 kts 39°
2026-04-22 04:33 25.73861 -99.93993 6990 ft 247 kts 30°
2026-04-22 04:33 25.75392 -99.93131 7042 ft 247 kts 29°
2026-04-22 04:34 25.76912 -99.92347 7040 ft 247 kts 19°
2026-04-22 04:34 25.78601 -99.92247 7041 ft 249 kts 346°
2026-04-22 04:34 25.80134 -99.93131 7046 ft 246 kts 312°
2026-04-22 04:34 25.81180 -99.94587 7048 ft 245 kts 301°
2026-04-22 04:35 25.82117 -99.96167 7048 ft 245 kts 299°
2026-04-22 04:35 25.83021 -99.97765 7048 ft 244 kts 298°
2026-04-22 04:35 25.83896 -99.99387 7050 ft 245 kts 297°
2026-04-22 04:35 25.84752 -100.01000 7050 ft 245 kts 297°
2026-04-22 04:36 25.85619 -100.02640 7051 ft 245 kts 297°
2026-04-22 04:36 25.86483 -100.04274 7051 ft 245 kts 297°
2026-04-22 04:36 25.87345 -100.05906 7052 ft 245 kts 297°
2026-04-22 04:36 25.88211 -100.07544 7051 ft 246 kts 297°
2026-04-22 04:37 25.89077 -100.09180 7050 ft 246 kts 297°
2026-04-22 04:37 25.89948 -100.10818 7056 ft 246 kts 297°
2026-04-22 04:37 25.90814 -100.12445 7059 ft 246 kts 297°
2026-04-22 04:37 25.91685 -100.14085 7062 ft 246 kts 297°
2026-04-22 04:38 25.92555 -100.15724 7063 ft 246 kts 297°
2026-04-22 04:38 25.93426 -100.17370 6867 ft 247 kts 297°
2026-04-22 04:38 25.94000 -100.18450 6799 ft 243 kts 297°
2026-04-22 04:38 25.94762 -100.19880 6747 ft 232 kts 297°
2026-04-22 04:39 25.95556 -100.21366 6724 ft 215 kts 297°
2026-04-22 04:39 25.96290 -100.22740 6602 ft 203 kts 297°
2026-04-22 04:39 25.96941 -100.24082 6467 ft 191 kts 283°
2026-04-22 04:39 25.97117 -100.25548 6363 ft 198 kts 259°
2026-04-22 04:40 25.96728 -100.26989 6242 ft 197 kts 234°
2026-04-22 04:40 25.95828 -100.28120 6117 ft 191 kts 210°
2026-04-22 04:40 25.94713 -100.28873 5993 ft 192 kts 206°
2026-04-22 04:40 25.93569 -100.29638 5857 ft 192 kts 207°
2026-04-22 04:41 25.92424 -100.30408 5733 ft 192 kts 207°
2026-04-22 04:41 25.91274 -100.31179 5606 ft 193 kts 205°
2026-04-22 04:41 25.90022 -100.31475 5490 ft 184 kts 167°
2026-04-22 04:41 25.88923 -100.30809 5326 ft 182 kts 130°
2026-04-22 04:42 25.88335 -100.29563 5109 ft 184 kts 117°
2026-04-22 04:42 25.87712 -100.28341 4861 ft 183 kts 123°
2026-04-22 04:42 25.87023 -100.27141 4592 ft 182 kts 124°
2026-04-22 04:42 25.86338 -100.25961 4352 ft 182 kts 123°
2026-04-22 04:43 25.85657 -100.24774 4096 ft 182 kts 122°
2026-04-22 04:43 25.84985 -100.23590 3843 ft 181 kts 122°
2026-04-22 04:43 25.84319 -100.22405 3597 ft 181 kts 122°
2026-04-22 04:43 25.83654 -100.21212 3414 ft 181 kts 121°
2026-04-22 04:44 25.82994 -100.20021 3366 ft 181 kts 122°
2026-04-22 04:44 25.82373 -100.18899 3355 ft 156 kts 122°
2026-04-22 04:44 25.81823 -100.17899 3001 ft 148 kts 121°
2026-04-22 04:44 25.81302 -100.16951 2649 ft 141 kts 121°
2026-04-22 04:45 25.80793 -100.16033 2281 ft 138 kts 122°
2026-04-22 04:45 25.80293 -100.15168 2009 ft 136 kts 122°
2026-04-22 04:45 25.80050 -100.14747 1906 ft 137 kts 121°
2026-04-22 04:45 25.79554 -100.13821 1774 ft 136 kts 120°
2026-04-22 04:46 25.79077 -100.12910 1567 ft 134 kts 120°
2026-04-22 04:46 25.78601 -100.12047 1379 ft 136 kts 122°
2026-04-22 04:46 25.78129 -100.11209 1289 ft 118 kts 125°
2026-04-22 04:46 25.77877 -100.10749 1280 ft 89 kts 121°
2026-04-22 04:47 25.77684 -100.10392 1278 ft 24 kts 119°
2026-04-22 04:47 25.77503 -100.10062 1274 ft 66 kts 122°
2026-04-22 04:47 25.77270 -100.09645 1269 ft 57 kts 118°
2026-04-22 04:47 25.77075 -100.09283 1255 ft 50 kts 122°
2026-04-22 04:48 25.76983 -100.09202 1254 ft 8 kts 197°
2026-04-22 04:48 25.76925 -100.09236 1255 ft 11 kts 210°
2026-04-22 04:48 25.76878 -100.09299 1255 ft 12 kts 270°
2026-04-22 04:48 25.76905 -100.09374 1265 ft 11 kts 300°
2026-04-22 04:49 25.76941 -100.09440 1259 ft 11 kts 301°
2026-04-22 04:49 25.76980 -100.09509 1262 ft 11 kts 302°
2026-04-22 04:49 25.77020 -100.09579 1261 ft 11 kts 301°
2026-04-22 04:49 25.77058 -100.09649 1263 ft 12 kts 301°
2026-04-22 04:50 25.77145 -100.09809 1267 ft 32 kts 301°
2026-04-22 04:50 25.77270 -100.10040 1272 ft 37 kts 301°
2026-04-22 04:50 25.77414 -100.10300 1276 ft 41 kts 301°
2026-04-22 04:50 25.77564 -100.10572 1278 ft 41 kts 301°
2026-04-22 04:51 25.77713 -100.10844 1280 ft 41 kts 301°
2026-04-22 04:51 25.77860 -100.11115 1281 ft 42 kts 301°
2026-04-22 04:51 25.77976 -100.11321 1281 ft 20 kts 301°
2026-04-22 04:51 25.77983 -100.11396 1282 ft 7 kts 229°
2026-04-22 04:52 25.77940 -100.11426 1281 ft 5 kts 211°
2026-04-22 04:52 25.77936 -100.11429 1282 ft 0 kts 211°